CAPE
81 92 187 365 967 1068 1172 1218 1229 1212 1161 1095 858 881 1206 1283 1038 1084 1120 946 745 832 987 536 1017 1079 876 1232 980 634 628 762 1141 1441 1465 1313 1063 1596 1639 1592 1527 1196 1807
66 143 213 893 622 902 950 806 1066 1004 995 852 764 834 945 1162 1207 1065 930 466 488 742 759 1568 1175 1045 1024 1151 1140 1160 1271 1258 1304 1346 1115 892 1230 1379 1532 1511 1428 1519 1517
74 177 474 1015 1104 909 900 811 634 857 963 1006 979 1277 1262 1156 1217 1078 1119 1198 785 575 735 792 911 1146 910 1080 1153 1235 1230 1301 1366 1278 1007 800 685 989 1128 1165 1129 1565 1491
91 225 663 668 931 961 876 984 1370 1453 1416 1175 1081 1294 1133 1197 1222 1098 512 580 824 471 413 478 584 579 723 963 1039 1047 975 1019 825 623 558 444 460 907 1027 1258 1193 1453 909
55 446 592 625 945 884 758 789 1139 1406 1324 1172 1339 1266 337 295 320 320 566 1124 519 634 1076 948 905 871 779 737 674 679 876 1202 1089 841 534 232 262 689 1205 807 552 526 729
30 310 457 1061 1247 1059 885 926 1059 1357 1359 1483 1136 692 370 1350 1141 1253 1307 1249 994 749 776 825 785 590 311 314 398 602 783 918 1170 1137 991 434 100 444 986 1240 1143 356 48
0 80 625 903 1203 994 1184 1317 1285 1512 1505 1461 848 438 432 1239 1133 770 912 810 818 896 944 737 625 440 424 424 483 443 573 1010 1223 1029 1235 675 102 204 954 912 941 499 283
0 75 396 478 852 1278 1221 930 1211 1324 1484 1255 940 765 774 797 696 1060 1183 1270 1271 1258 1132 1016 874 480 427 371 433 428 494 853 833 945 1193 823 286 154 1315 1314 1050 556 586
1 0 136 293 1194 1353 1428 1459 1193 903 1006 1300 1341 1254 1065 880 1105 1443 1304 1085 1253 1253 954 998 811 639 426 288 292 326 450 565 1226 791 556 774 208 29 797 1924 1259 1058 986
0 1 56 165 322 1166 1133 1294 1204 1068 1070 979 763 764 902 1127 1119 670 395 580 661 671 672 783 689 380 205 105 161 182 329 377 459 673 828 861 264 97 361 1265 1263 1061 700
0 0 44 141 378 877 907 1254 1222 1263 1375 1127 1364 881 817 785 711 476 329 465 670 696 928 1173 1279 1293 930 633 976 1057 872 713 532 941 841 696 481 283 158 524 994 1053 975
0 3 32 125 208 220 164 388 795 760 761 868 881 886 947 1164 1198 1342 949 853 1110 1044 1125 1112 1055 940 1004 1278 1184 987 610 469 478 482 583 575 448 403 385 338 450 632 740
1 34 0 67 121 38 1 101 388 753 805 989 1011 1095 1166 1144 1084 1091 999 1150 980 850 1187 1132 1340 1235 1333 1410 1302 1197 1042 856 651 502 388 514 722 662 742 772 554 651 559
0 4 1 22 24 29 0 30 138 412 406 451 606 1040 1317 1259 1069 1270 1288 1132 1133 935 1148 1459 1436 1272 1444 1401 1240 1179 1106 1014 816 669 556 489 853 827 889 1016 842 804 894
0 0 2 3 16 36 10 7 26 24 56 136 422 1032 1031 1319 975 435 956 1278 1348 1275 1262 1471 1333 1268 1066 917 1124 1284 957 926 996 970 753 532 637 718 704 817 848 708 689
0 0 0 0 1 3 9 0 1 1 46 212 629 897 1056 1225 1457 1268 1033 1347 1164 909 650 767 1032 979 782 529 303 265 486 621 1135 1315 1112 1114 757 652 638 723 818 657 693
0 0 0 0 0 0 0 1 0 0 5 24 67 248 534 933 1588 1579 1365 1292 1211 866 1160 1050 1069 821 339 86 40 54 119 95 331 1012 1251 1341 1291 1134 975 1044 1046 961 885
0 0 0 0 0 0 0 0 0 0 1 0 0 115 619 1423 1696 1728 1592 1437 1551 1571 1351 864 902 389 178 229 195 251 260 112 178 579 941 1149 1176 1224 1149 1026 865 853 995
5 0 0 0 0 0 0 0 0 0 4 1 0 69 1034 1889 1848 1319 1349 1508 1585 1339 1455 197 497 335 561 619 534 144 75 166 327 573 793 1100 1149 783 741 1000 847 702 720
170 39 0 0 0 0 0 0 0 0 0 0 41 494 1433 1436 1436 1359 1275 1089 1439 1167 1281 1436 1215 992 875 684 265 94 168 164 543 297 3 244 121 238 407 349 266 580 393
193 128 85 45 0 0 0 0 0 0 0 0 220 764 1238 1174 1206 1223 1029 648 533 627 604 393 643 1022 771 447 438 115 0 0 472 0 5 36 0 213 85 0 104 179 56
154 112 103 47 13 0 0 0 0 0 16 93 335 1033 1112 1105 1083 969 776 611 248 15 0 258 677 730 650 557 493 584 0 25 35 11 127 5 100 0 0 0 1 44 108
169 101 21 17 5 0 0 0 0 33 78 198 354 732 778 799 953 776 591 331 6 0 5 133 527 816 992 730 692 282 3 0 0 0 0 9 31 0 0 0 2 34 166
181 204 140 33 0 0 0 0 0 0 27 324 810 1156 1075 981 896 859 658 182 16 32 124 333 543 871 970 699 759 806 823 541 0 0 0 0 0 13 9 5 30 73 142
263 199 160 102 2 0 0 0 3 32 230 696 1055 948 1606 1406 1232 1025 708 421 302 232 283 504 767 1023 1008 755 508 487 637 211 246 164 47 19 56 65 27 15 51 112 110
237 227 194 188 120 11 0 3 14 108 409 732 1060 1015 1461 1807 1810 1245 835 703 703 707 778 845 1200 1440 1011 810 849 927 258 26 19 54 97 130 75 19 24 84 96 119 99
CIN
-0 -3 -15 -6 -0 -0 -0 -0 -0 -0 -0 -0 -1 -1 -0 -0 -1 -1 -0 -0 -0 -0 -0 -7 -2 -0 -2 -0 -5 -38 -64 -39 -5 -0 -1 -0 -2 -1 -0 -0 -1 -0 -0
-5 -1 -3 -1 -10 -2 -0 -12 -0 -0 -0 -0 -2 -2 -2 -0 -0 -2 -2 -7 -7 -0 -0 -0 -0 -0 -0 -0 -0 -0 -3 -10 -0 -0 -13 -8 -2 -0 -0 -0 -1 -0 -1
-0 -2 -2 -0 -0 -4 -5 -7 -5 -2 -0 -1 -0 -0 -0 -0 -0 -0 -0 -0 -0 -1 -1 -0 -0 -0 -1 -0 -0 -0 -0 -1 -1 -0 -6 -0 -0 -2 -0 -0 -0 -0 -0
-3 -2 -0 -2 -1 -1 -4 -2 -1 -0 -0 -0 -0 -0 -0 -0 -0 -0 -6 -1 -0 -5 -12 -11 -4 -11 -13 -8 -1 -0 -3 -9 -17 -23 -5 -7 -1 -4 -3 -0 -0 -0 -1
-3 -2 -0 -2 -0 -2 -5 -5 -1 -0 -0 -0 -0 -0 -25 -29 -24 -23 -3 -0 -0 -0 -0 -0 -0 -0 -5 -7 -20 -16 -11 -4 -14 -9 -16 -45 -34 -4 -2 -6 -24 -38 -16
-1 -6 -7 -1 -0 -2 -4 -4 -4 -1 -0 -0 -0 -4 -16 -0 -0 -0 -0 -0 -0 -0 -1 -0 -2 -16 -35 -38 -41 -34 -26 -18 -14 -0 -4 -27 -84 -45 -0 -0 -1 -49 -118
-0 -5 -1 -1 -0 -1 -1 -0 -1 -0 -0 -0 -4 -24 -21 -0 -0 -0 -0 -0 -0 -0 -0 -3 -11 -23 -30 -39 -40 -65 -37 -13 -11 -12 -6 -26 -87 -88 -8 -1 -0 -19 -48
-0 -8 -1 -3 -1 -0 -1 -7 -1 -0 -0 -0 -2 -4 -4 -3 -4 -0 -4 -0 -0 -0 -0 -2 -10 -34 -39 -53 -45 -51 -54 -35 -32 -25 -20 -22 -68 -116 -2 -2 -1 -16 -15
-1 -0 -18 -12 -0 -0 -0 -0 -2 -0 -0 -0 -1 -0 -0 -2 -0 -0 -1 -3 -1 -0 -9 -7 -15 -31 -51 -60 -65 -58 -52 -53 -31 -29 -51 -31 -116 -200 -28 -0 -0 -0 -0
-0 -7 -18 -25 -29 -0 -0 -0 -1 -2 -3 -0 -4 -5 -2 -0 -2 -19 -34 -20 -21 -20 -25 -18 -24 -62 -74 -93 -71 -71 -65 -66 -17 -37 -49 -25 -100 -155 -75 -5 -1 -4 -13
-0 -0 -27 -19 -20 -3 -5 -4 -0 -0 -2 -9 -0 -10 -18 -10 -10 -32 -51 -54 -39 -36 -21 -15 -13 -14 -26 -36 -35 -36 -50 -18 -20 -21 -29 -50 -102 -103 -119 -57 -21 -5 -6
-0 -37 -32 -103 -57 -60 -89 -67 -25 -23 -22 -16 -18 -20 -13 -12 -14 -12 -29 -39 -29 -32 -29 -29 -22 -21 -20 -7 -11 -27 -19 -36 -28 -28 -34 -73 -108 -91 -87 -80 -66 -49 -36
-27 -50 -16 -86 -115 -133 -42 -164 -86 -36 -33 -26 -28 -17 -16 -22 -27 -21 -28 -26 -37 -52 -26 -25 -16 -18 -18 -17 -13 -17 -23 -21 -16 -25 -29 -70 -75 -76 -76 -66 -72 -64 -64
-0 -46 -7 -90 -160 -179 -0 -211 -144 -66 -87 -76 -51 -28 -18 -13 -34 -30 -35 -40 -49 -50 -25 -22 -25 -36 -26 -31 -33 -25 -23 -24 -24 -26 -31 -69 -61 -66 -59 -53 -49 -46 -43
-0 -0 -62 -157 -170 -182 -226 -246 -224 -210 -191 -128 -85 -50 -51 -29 -40 -102 -55 -42 -46 -49 -41 -30 -37 -24 -32 -41 -22 -22 -27 -28 -25 -23 -28 -62 -62 -58 -65 -60 -53 -48 -49
-0 -0 -0 -0 -27 -97 -197 -32 -159 -90 -193 -139 -85 -74 -79 -59 -34 -42 -53 -30 -34 -68 -91 -68 -56 -46 -41 -50 -83 -108 -86 -70 -44 -35 -24 -15 -43 -46 -58 -54 -54 -63 -55
-0 -0 -0 -0 -8 -0 -29 -135 -0 -0 -242 -232 -193 -142 -109 -83 -44 -47 -47 -42 -39 -69 -46 -58 -60 -61 -69 -114 -144 -174 -171 -193 -94 -46 -29 -15 -15 -34 -48 -45 -41 -33 -36
-0 -0 -0 -0 -0 -0 -0 -0 -0 -0 -203 -77 -0 -159 -99 -57 -53 -53 -46 -37 -26 -35 -28 -38 -34 -64 -111 -112 -96 -99 -130 -173 -154 -81 -52 -31 -18 -18 -26 -41 -43 -36 -28
-92 -0 -0 -0 -0 -0 -0 -0 -0 -0 -220 -133 -0 -138 -50 -32 -36 -22 -41 -41 -41 -31 -22 -76 -59 -106 -96 -96 -75 -123 -130 -134 -105 -65 -62 -44 -34 -39 -36 -32 -49 -51 -53
-189 -282 -0 -0 -0 -0 -0 -0 -0 -0 -0 -0 -175 -72 -41 -55 -53 -54 -49 -55 -36 -40 -8 -2 -8 -23 -57 -80 -104 -127 -80 -85 -79 -93 -30 -62 -66 -73 -51 -56 -60 -42 -99
-234 -277 -332 -333 -0 -0 -0 -0 -0 -0 -0 -0 -104 -64 -54 -64 -62 -55 -48 -63 -87 -66 -76 -92 -70 -52 -49 -78 -72 -90 -0 -0 -71 -0 -58 -86 -0 -51 -24 -0 -83 -88 -141
-336 -333 -292 -298 -261 -0 -0 -0 -0 -0 -70 -164 -106 -61 -61 -56 -65 -77 -82 -89 -129 -137 -0 -131 -86 -81 -76 -80 -62 -60 -0 -136 -148 -118 -119 -40 -110 -0 -0 -0 -28 -176 -122
-339 -338 -394 -395 -293 -0 -0 -0 -0 -262 -208 -145 -92 -58 -61 -64 -77 -101 -124 -153 -20 -0 -31 -173 -111 -72 -36 -64 -56 -54 -54 -0 -0 -0 -0 -88 -172 -0 -0 -0 -201 -266 -113
-325 -318 -362 -457 -0 -68 -0 -0 -0 -0 -172 -98 -67 -55 -48 -77 -88 -106 -134 -212 -205 -224 -179 -130 -125 -87 -66 -42 -59 -45 -25 -24 -0 -0 -0 -0 -0 -259 -241 -253 -255 -204 -175
-330 -355 -392 -395 -250 -0 -0 -0 -227 -310 -175 -91 -80 -74 -32 -54 -77 -101 -133 -162 -180 -170 -157 -114 -83 -71 -69 -66 -82 -43 -29 -65 -43 -46 -197 -283 -235 -227 -218 -250 -216 -148 -118
-354 -378 -395 -413 -378 -140 -10 -138 -368 -264 -185 -108 -76 -59 -25 -10 -32 -90 -130 -142 -144 -141 -117 -88 -57 -39 -35 -38 -26 -37 -82 -131 -134 -69 -54 -85 -117 -2 -268 -306 -212 -148 -130
Wind_Speed
7 8 9 26 26 24 23 26 27 25 26 15 20 19 6 13 16 12 11 7 11 17 19 23 23 26 26 27 28 29 27 27 24 23 23 20 18 19 19 18 23 22 6
6 26 35 28 26 23 20 22 22 22 19 18 17 9 2 3 5 7 1 5 14 22 19 17 28 25 23 25 27 25 25 25 24 22 22 21 18 15 17 18 17 22 13
20 21 22 24 24 24 19 19 19 19 19 19 18 16 9 11 13 9 5 4 5 10 23 22 24 25 24 24 24 24 21 22 23 19 19 19 16 15 15 15 17 17 16
23 16 12 15 19 20 17 16 17 18 16 17 20 19 13 11 17 14 12 7 13 10 27 28 25 27 27 25 25 23 20 19 19 19 17 17 17 18 18 16 15 16 16
8 14 16 15 15 15 16 15 15 14 15 17 15 16 11 14 16 15 17 15 11 21 13 12 21 27 26 23 21 19 18 16 15 15 15 14 15 17 16 16 16 15 14
5 10 13 14 13 13 13 13 13 15 15 16 16 16 13 8 12 8 12 13 16 13 14 15 15 25 23 18 18 16 13 13 12 12 13 14 14 14 15 16 15 13 14
10 10 14 13 13 12 12 11 11 12 12 11 12 13 10 6 9 7 12 14 14 10 9 10 10 8 9 12 12 12 9 8 11 12 13 13 13 15 15 15 15 14 15
6 1 10 8 10 11 12 13 11 9 8 9 10 10 9 7 8 10 11 12 13 8 9 11 10 10 10 11 12 11 10 9 10 11 12 13 14 14 14 15 15 15 15
3 2 4 6 10 11 12 18 16 15 10 6 8 9 8 7 6 9 12 12 11 10 12 11 12 12 12 12 12 11 11 11 10 11 12 13 13 13 14 15 15 16 16
3 4 4 4 7 9 19 14 17 17 13 7 8 8 9 9 9 10 11 13 14 13 13 16 15 14 15 14 15 14 14 12 11 11 11 12 13 13 13 14 14 15 17
2 6 6 1 9 13 15 12 13 14 17 11 8 8 10 11 11 13 14 15 16 16 15 17 16 16 16 15 17 18 15 19 16 12 11 10 11 11 13 14 15 16 17
7 14 2 3 9 11 13 5 9 14 14 8 8 10 11 12 13 12 14 14 16 17 17 17 18 18 18 19 20 20 20 21 21 22 21 10 9 9 9 11 11 11 16
23 23 17 9 10 10 10 9 13 22 18 9 9 11 13 14 16 16 17 17 17 17 17 18 18 19 20 21 21 22 23 24 24 24 23 19 6 7 6 7 10 8 9
26 23 23 19 15 13 13 9 7 10 10 11 9 13 14 16 17 17 15 17 17 19 19 19 19 20 20 20 23 24 25 25 25 25 24 22 16 13 11 5 4 6 5
29 29 28 24 24 24 23 6 8 9 13 15 8 12 14 13 12 11 11 11 10 8 16 18 18 21 24 24 23 24 24 24 24 24 25 23 21 22 22 13 4 5 3
30 30 29 28 27 25 24 23 21 17 17 15 15 14 11 11 10 10 11 10 11 11 11 11 13 14 15 23 22 24 25 25 24 25 26 26 26 27 27 27 24 17 8
31 30 30 29 28 26 25 24 22 21 18 16 15 12 12 10 10 11 11 10 10 11 11 10 17 6 13 19 21 23 24 23 24 26 27 27 27 27 27 28 28 28 27
30 30 30 29 28 27 26 24 21 19 18 15 12 12 12 9 8 8 8 8 10 10 12 8 8 11 5 3 18 19 21 24 22 22 23 26 26 27 24 22 28 32 34
28 29 30 29 29 28 26 24 22 21 18 15 13 11 12 9 7 9 7 7 7 7 12 13 15 17 18 21 15 15 16 21 20 20 24 23 24 26 26 26 26 29 30
26 27 28 28 28 27 25 23 21 19 17 14 12 10 11 9 9 7 6 7 7 6 12 13 18 21 20 23 24 24 23 23 20 21 29 24 28 28 28 32 32 27 28
25 26 27 27 27 25 23 21 19 18 14 11 10 8 6 5 6 10 8 7 8 8 12 16 17 20 20 23 24 27 23 26 18 28 29 27 31 29 34 37 34 32 32
24 24 25 25 25 24 22 18 13 9 7 6 6 10 11 11 12 11 11 11 11 11 11 13 15 18 19 21 22 21 23 26 18 32 24 31 29 35 39 40 38 37 34
23 23 23 24 25 24 22 18 12 16 14 10 5 9 14 13 14 11 12 11 12 12 12 12 14 16 18 19 20 23 25 23 34 24 30 28 32 36 40 39 39 38 37
23 23 23 24 24 23 21 18 16 18 14 6 8 11 13 16 12 12 12 10 11 11 12 13 14 16 18 20 23 20 21 29 37 40 33 36 33 39 39 39 39 37 36
25 24 24 22 20 19 17 18 16 16 14 9 5 5 7 19 15 14 11 11 11 11 14 15 16 18 20 22 22 24 22 27 29 33 44 42 42 41 40 38 39 37 34
25 25 23 21 18 18 16 15 15 14 12 7 7 4 4 10 14 16 14 12 11 12 13 18 14 15 21 24 25 25 25 28 32 35 40 45 45 43 43 43 38 36 35
Wind_Direction
179 166 81 137 79 76 76 81 82 79 78 65 65 150 164 166 160 164 164 172 164 150 141 132 130 120 117 110 108 101 110 105 113 120 122 139 149 152 155 162 127 87 283
174 157 115 84 79 75 73 74 74 73 67 62 57 44 177 185 185 181 254 184 159 137 144 145 113 124 127 116 108 113 114 113 114 123 124 128 146 163 163 158 166 136 205
171 167 77 78 78 78 72 71 69 68 66 63 58 51 35 37 37 25 10 2 4 171 133 138 128 124 127 122 117 117 122 121 115 127 130 133 148 162 170 172 164 165 181
166 70 66 69 72 73 69 67 67 65 59 58 61 58 38 31 46 36 28 9 37 46 115 106 122 110 109 119 113 117 128 131 127 124 133 135 138 136 143 156 173 173 177
69 66 69 70 68 66 65 63 62 57 56 56 49 47 28 37 41 38 44 35 18 55 68 20 48 104 104 115 127 129 127 137 142 143 143 149 147 140 150 157 160 179 194
67 63 67 67 65 61 58 56 58 56 52 52 50 43 33 8 29 9 24 29 34 22 25 26 136 88 101 139 133 143 149 150 155 168 163 156 158 159 158 157 167 192 199
68 65 63 62 62 58 56 49 45 46 43 35 31 33 25 352 11 354 18 25 23 355 342 342 341 229 209 182 184 177 207 202 171 168 155 162 166 164 166 164 171 182 193
67 31 51 50 50 54 54 52 41 26 18 17 20 20 15 356 360 8 9 12 13 313 311 335 318 238 223 205 191 208 217 212 193 184 174 165 154 161 179 177 185 190 192
209 23 27 30 51 51 51 61 51 42 19 351 7 6 360 340 316 348 358 351 328 285 314 274 237 277 250 210 200 194 190 203 176 162 176 184 153 151 174 177 178 196 204
246 234 256 25 35 43 65 51 53 47 32 6 5 355 353 341 319 330 328 338 338 218 315 353 301 242 274 244 262 244 237 215 187 173 148 176 165 172 174 179 183 190 202
234 237 236 334 48 50 51 40 40 41 44 13 344 338 347 344 330 352 345 357 46 62 308 323 286 267 266 242 310 280 259 331 262 210 196 151 149 154 171 183 196 202 203
94 203 247 51 55 48 42 356 24 34 30 326 318 321 325 341 332 296 323 316 20 9 332 322 313 313 307 306 320 334 337 343 333 298 288 79 121 130 142 168 166 171 201
122 123 106 79 64 49 37 26 39 92 60 337 329 327 342 354 357 1 4 3 5 353 334 323 337 340 331 325 312 307 309 306 309 309 312 341 124 118 86 148 174 159 166
134 127 127 110 89 68 56 21 350 2 353 356 306 337 339 354 14 5 28 13 359 345 329 336 340 345 343 337 315 306 302 311 308 309 311 320 346 358 3 27 161 174 165
147 145 143 137 140 135 134 121 298 323 227 192 288 201 293 256 252 170 166 96 154 340 292 286 274 308 328 307 296 306 315 316 311 309 312 321 325 324 321 339 342 339 329
157 157 155 157 158 158 155 152 175 196 183 194 206 256 201 193 166 162 167 168 172 183 174 183 209 257 30 317 272 286 290 300 312 308 307 307 311 310 312 307 315 323 316
164 164 165 166 169 166 168 161 158 161 178 182 195 181 174 184 200 197 179 156 124 154 130 124 246 137 238 273 266 277 275 312 329 314 309 310 313 317 317 313 311 307 305
167 168 168 168 171 171 171 168 169 170 173 172 172 176 202 196 179 151 150 134 75 123 108 155 202 69 169 173 264 263 275 319 341 348 340 320 326 329 339 339 318 302 292
170 174 176 176 178 181 187 190 195 203 205 204 198 198 213 200 175 198 143 149 112 89 50 41 41 31 24 13 273 262 260 11 6 8 357 349 349 343 339 339 334 323 312
171 175 178 178 179 179 181 184 187 189 192 195 197 194 205 197 199 164 162 163 126 109 43 28 6 357 12 358 350 335 351 0 8 4 342 353 345 340 340 330 325 331 325
166 169 174 178 181 181 180 179 182 185 181 184 182 168 122 143 125 52 64 69 54 61 27 13 9 4 6 1 355 334 351 346 11 341 345 349 337 342 332 322 325 322 319
159 164 170 175 178 177 175 170 159 135 125 112 76 39 29 35 32 44 51 58 62 61 52 38 23 11 8 9 3 7 356 348 4 339 351 339 343 334 326 321 318 314 316
159 159 163 171 176 177 175 172 164 189 189 173 117 35 2 10 12 38 38 45 48 45 33 27 18 10 5 1 360 353 349 349 334 346 339 340 335 332 329 327 320 317 313
165 165 165 170 172 175 170 169 171 186 179 126 44 17 5 351 18 20 22 26 20 15 9 6 1 356 351 350 342 347 344 334 326 325 334 330 333 327 328 328 324 324 319
171 171 175 173 165 165 161 173 171 181 185 176 126 95 60 332 353 359 14 7 4 359 346 345 343 339 334 338 339 337 344 336 333 330 323 325 323 324 327 327 323 321 323
174 174 173 171 174 172 168 172 180 181 183 171 172 124 100 20 0 343 347 350 354 348 346 336 343 340 332 330 330 333 335 333 330 329 326 324 324 326 323 318 321 321 321